Regional Weather Roundup
Issued by NWS

Home | Current Version | Previous Version | Text Only | Print | Product List | Glossary Off
Versions: 1 2 3 4 5 6 7 8 9 10 11 12 13 14 15 16 17 18 19 20 21 22 23 24 25 26 27 28 29 30 31 32 33 34 35 36 37 38 39 40 41 42 43 44 45 46 47 48 49 50

000
ASUS43 KFSD 052110
RWRSD

WEATHER ROUNDUP FOR SOUTH DAKOTA
NATIONAL WEATHER SERVICE SIOUX FALLS SD
400 PM CDT SUN JUL 05 2015

NOTE: "FAIR" INDICATES FEW OR NO CLOUDS BELOW 12,000 FEET WITH NO
SIGNIFICANT WEATHER AND/OR OBSTRUCTIONS TO VISIBILITY.


SDZ001>005-009-010-012>017-052200-
NORTHWEST AND NORTH CENTRAL SOUTH DAKOTA

CITY           SKY/WX    TMP DP  RH WIND       PRES   REMARKS
BUFFALO          N/A     73  56  54 N24       29.92R
FAITH            N/A     80  61  52 N22       29.87S
MOBRIDGE       PTSUNNY   85  67  54 N13       29.81R
$$

SDZ012>016-024>037-041>051-057-063-072>074-052200-
SOUTHWEST AND SOUTH CENTRAL SOUTH DAKOTA

CITY           SKY/WX    TMP DP  RH WIND       PRES   REMARKS
RAPID CTY ARPT PTSUNNY   79  65  62 N18G26    29.91R
PIERRE         CLOUDY    83  72  69 N12       29.76R
CUSTER         CLOUDY    72  59  63 NE17G23   30.02S
ELLSWORTH AFB  CLOUDY    78  64  63 N20       29.91R
PHILIP         CLOUDY    84  67  56 NE13      29.78F
PINE RIDGE     CLOUDY    84  70  62 NE8       29.80F THUNDER
SPEARFISH      PTSUNNY   68  59  73 N17G25    30.02R
WINNER         FAIR      96  65  35 SE8       29.74F HX  98
$$

SDZ004>011-016>023-039-040-052200-
NORTHEAST SOUTH DAKOTA

CITY           SKY/WX    TMP DP  RH WIND       PRES   REMARKS
ABERDEEN       CLOUDY    89  70  53 CALM      29.75S
WATERTOWN      CLOUDY    87  71  58 SW6       29.78F
BROOKINGS      MOSUNNY   84  68  58 S9        29.82S
SISSETON         N/A     86  70  58 NW6       29.75S
$$

SDZ017-020-022-023-036>040-048>070-052200-
SOUTHEAST SOUTH DAKOTA

CITY           SKY/WX    TMP DP  RH WIND       PRES   REMARKS
SIOUX FALLS    MOSUNNY   87  70  56 SE15      29.81R
HURON          MOSUNNY   88  71  57 S9        29.74F
CHAMBERLAIN    MOSUNNY   89  73  58 E6        29.75F HX  97
MITCHELL       MOSUNNY   89  72  56 S12       29.76S HX  96
YANKTON        MOSUNNY   88  73  62 S14G20    29.76S HX  96
$$

ABBREVIATIONS USED IN REMARKS
   TC - TEMPERATURE IN CELSIUS
  WCI - WIND CHILL INDEX
   HX - HEAT INDEX
  VSB - VISIBILITY




USA.gov is the U.S. government's official web portal to all federal, state and local government web resources and services.